#timestamp,LO_Frequency,Hit,StdDev 
1623340815.8,286047001.2,N
1623340835.6,286047001.2,N
1623340855.5,286046998.3,N
1623340875.3,286047000.8,N
1623340895.1,286046998.2,N
1623340915.9,286047000.4,N
1623340935.7,286047000.8,N
1623340955.5,286047002.8,N
1623340975.4,286047002.7,N
1623340995.2,286047002.7,N
1623341015.1,286047000.0,N
1623341016.0,286047000.0,N
1623341035.8,286047000.7,N
1623341055.6,286047000.5,N
1623341075.5,286047000.9,N
1623341095.3,286047002.8,N
1623341115.1,286047002.7,N
1623341135.9,286047002.7,N
1623341155.7,286047002.6,N
1623341175.6,286047002.3,N
1623341195.4,286047000.5,N
1623341215.2,286046998.1,N
1623341235.1,286047000.8,N
1623341236.0,286047000.8,N
1623341255.8,286046998.6,N
1623341275.6,286046998.3,N
1623341295.5,286047000.8,N
1623341315.3,286047002.8,N
1623341335.2,286047002.6,N
1623341355.9,286046999.8,N
1623341375.7,286046999.7,N
1623341395.6,286047002.6,N
1623341415.4,286046999.8,N
1623341435.2,286047000.1,N
1623341455.1,286047002.5,N
1623341456.0,286047002.5,N
1623341475.8,286047001.9,N
1623341495.7,286047001.4,N
1623341515.5,286047002.1,N
1623341535.3,286047002.5,N
1623341555.2,286047002.7,N
1623341575.0,286047002.3,N
1623341575.9,286047002.3,N
1623341595.8,286047002.3,N
1623341615.6,286047002.4,N
1623341635.4,286047002.6,N
1623341655.3,286047001.8,N
1623341675.1,286047004.0,N
1623341695.9,286047001.9,N
1623341715.7,286047001.9,N
1623341735.5,286047002.4,N
1623341755.4,286047003.5,N
1623341775.2,286047005.7,Y
1623341795.0,286047002.4,P
1623341795.9,286047002.4,P
1623341815.8,286047004.0,P
1623341835.6,286047001.8,N
1623341855.5,286047001.6,N
1623341875.3,286047001.9,N
1623341895.1,286047002.1,N
1623341915.9,286047002.6,Y
1623341935.7,286046998.4,P
1623341955.6,286046998.5,N
1623341975.4,286046998.9,N
1623341995.2,286046996.9,N
1623342015.1,286046999.4,N
1623342016.0,286046999.4,N
1623342035.8,286046999.5,N
1623342055.6,286046996.9,N
1623342075.5,286046999.5,N
1623342095.3,286046999.2,N
1623342115.2,286046998.3,N
1623342135.9,286046999.1,N
1623342155.7,286046998.2,N
1623342175.6,286047000.9,N
1623342195.4,286047000.9,N
1623342215.2,286047001.1,N
1623342235.1,286046998.6,N
1623342236.0,286046998.6,N
1623342255.8,286046996.9,N
1623342275.7,286046998.8,N
1623342295.5,286046999.3,N
1623342315.3,286046998.6,N
1623342335.2,286046998.6,N
1623342355.0,286046999.4,N
1623342355.9,286046999.4,N
1623342375.7,286046998.6,N
1623342395.6,286046998.1,N
1623342415.4,286046998.1,N
1623342435.3,286046998.6,N
1623342455.1,286046998.8,N
1623342456.0,286046998.8,N
1623342475.8,286046998.7,N
1623342495.7,286047001.0,N
1623342515.5,286046998.5,N
1623342535.3,286046998.7,N
1623342555.2,286046998.1,N
1623342575.0,286047001.0,N
1623342575.9,286047001.0,N
1623342595.8,286046998.5,N
1623342615.6,286047000.8,N
1623342635.4,286047001.2,N
1623342655.3,286047001.3,N
1623342675.1,286047008.9,Y
1623342695.8,286047005.0,P
1623342715.7,286047004.2,N
1623342735.5,286047003.2,N
1623342755.4,286047003.3,N
1623342775.2,286047003.3,N
1623342795.0,286047004.0,N
1623342795.9,286047004.0,N
1623342815.8,286047001.4,N
1623342835.6,286047002.3,N
1623342855.4,286046999.7,N
1623342875.3,286047002.2,N
1623342895.1,286047001.9,N
1623342915.9,286047000.3,N
1623342935.7,286047000.0,N
1623342955.5,286047002.5,N
1623342975.4,286047001.9,N
1623342995.2,286046999.7,N
1623343015.0,286046999.7,N
1623343015.9,286046999.7,N
1623343035.8,286046999.7,N
1623343055.6,286047000.7,N
1623343075.5,286047000.6,N
1623343095.3,286046998.1,N
1623343115.1,286046998.4,N
1623343135.9,286046998.4,N
1623343155.7,286046999.4,N
1623343175.5,286046999.6,N
1623343195.4,286046999.2,N
1623343215.2,286046997.8,N
1623343235.0,286046999.4,N
1623343236.0,286046999.4,N
1623343255.8,286046997.1,N
1623343275.6,286046997.9,N
1623343295.5,286046995.4,N
1623343315.3,286046997.6,N
1623343335.1,286046999.1,N
1623343355.9,286046997.5,N
1623343375.7,286046998.7,N
1623343395.5,286046998.9,N
1623343415.4,286046999.5,N
1623343435.2,286047006.3,Y
1623343455.1,286047015.5,P
1623343456.0,286047015.5,N
1623343475.8,286047015.6,N
1623343495.6,286047010.9,N
1623343515.5,286047010.8,N
1623343535.3,286047008.0,N
1623343555.2,286047014.5,N
1623343575.9,286047017.1,Y
1623343595.7,286047001.4,P
1623343615.6,286046999.8,N
1623343635.4,286046999.3,N
1623343655.2,286046997.6,N
1623343675.1,286046997.9,N
1623343676.0,286046997.9,N
1623343695.8,286046995.7,N
1623343715.7,286046994.4,N
1623343735.5,286046990.5,N
1623343755.3,286046991.1,N
1623343775.2,286046991.4,N
1623343795.0,286046991.5,N
1623343795.9,286046991.5,N
1623343815.7,286046988.9,N
1623343835.6,286046988.8,N
1623343855.4,286046989.3,N
1623343875.3,286046986.9,N
1623343895.1,286046988.4,N
1623343896.0,286046988.4,N
1623343915.8,286046986.1,N
1623343935.7,286046986.3,N
1623343955.5,286046986.6,N
1623343975.3,286046984.2,N
1623343995.2,286046984.0,N
1623344015.0,286046986.4,N
1623344015.9,286046986.4,N
1623344035.8,286046985.9,N
1623344055.6,286046986.7,N
1623344075.4,286046984.4,N
1623344095.3,286046984.2,N
1623344115.1,286046983.8,Y
1623344135.8,286046996.2,P
1623344155.7,286046993.7,N
1623344175.5,286046994.4,N
1623344195.4,286046994.2,N
1623344215.2,286046995.9,N
1623344235.0,286046996.2,N
1623344235.9,286046996.2,N
1623344255.8,286046994.5,N
1623344275.6,286046992.3,Y
1623344295.5,286046996.7,P
1623344315.3,286046996.5,P
1623344335.1,286046997.0,P
1623344355.9,286046997.4,N
1623344375.7,286046997.7,N
1623344395.5,286046995.3,Y
